TAP93ZR LPPT-LSZH

Flight info

Callsign TAP93ZR
Flight time N/A
Altitude 36000
Route IXIDA1N IXIDA DCT TOSDI DCT ZMR DCT NEA DCT DGO DCT LPA DCT GOSVI DCT TOPTU DCT TOU DCT GAI DCT MEN DCT NINUN DCT LATAM DCT ETREK/N0454F300 DCT LTP DCT SOPLO DCT OMASI DCT KINNI DCT LAMUR DCT GUDAX Z57 DOPIL DOPIL2G
Aircraft A320/M-SDE3FGHIRWY/LB1

Departure

Time N/A
Airport Lisbon Humberto Delgado Airport (LPPT)

Arrival

Time 2026-04-26 14:17
Airport Zürich Airport (LSZH)
Time Latitude Longitude Altitude Speed Heading
2026-04-26 12:28 41.13778 -6.11377 36155 ft 452 kts 41°
2026-04-26 12:28 41.16119 -6.08586 36161 ft 452 kts 41°
2026-04-26 12:29 41.20741 -6.03021 36167 ft 452 kts 41°
2026-04-26 12:30 41.27717 -5.94599 36163 ft 451 kts 41°
2026-04-26 12:30 41.32369 -5.88999 36162 ft 451 kts 41°
2026-04-26 12:31 41.39345 -5.80589 36160 ft 451 kts 41°
2026-04-26 12:31 41.43989 -5.74962 36163 ft 451 kts 41°
2026-04-26 12:32 41.48623 -5.69326 36170 ft 451 kts 41°
2026-04-26 12:32 41.52891 -5.63223 36170 ft 451 kts 55°
2026-04-26 12:33 41.54466 -5.59604 36167 ft 451 kts 64°
2026-04-26 12:33 41.57017 -5.51940 36166 ft 451 kts 65°
2026-04-26 12:34 41.59574 -5.44277 36167 ft 451 kts 65°
2026-04-26 12:34 41.62127 -5.36613 36166 ft 451 kts 65°
2026-04-26 12:35 41.64666 -5.28939 36182 ft 451 kts 65°
2026-04-26 12:35 41.67191 -5.21259 36190 ft 451 kts 65°
2026-04-26 12:36 41.69694 -5.13631 36183 ft 451 kts 65°
2026-04-26 12:36 41.72226 -5.05897 36179 ft 451 kts 66°
2026-04-26 12:37 41.74724 -4.98263 36174 ft 450 kts 66°
2026-04-26 12:37 41.77231 -4.90581 36181 ft 450 kts 65°
2026-04-26 12:38 41.79725 -4.82900 36181 ft 449 kts 66°
2026-04-26 12:38 41.82209 -4.75219 36182 ft 449 kts 66°
2026-04-26 12:39 41.84693 -4.67532 36187 ft 449 kts 66°
2026-04-26 12:39 41.87173 -4.59834 36185 ft 449 kts 66°
2026-04-26 12:40 41.89646 -4.52129 36189 ft 448 kts 66°
2026-04-26 12:40 41.92106 -4.44439 36188 ft 448 kts 66°
2026-04-26 12:41 41.94552 -4.36791 36189 ft 448 kts 66°
2026-04-26 12:41 41.97005 -4.29094 36185 ft 448 kts 66°
2026-04-26 12:42 41.99447 -4.21391 36180 ft 447 kts 66°
2026-04-26 12:42 42.01884 -4.13686 36178 ft 447 kts 66°
2026-04-26 12:43 42.04382 -4.06023 36168 ft 447 kts 64°
2026-04-26 12:43 42.07064 -3.98530 36170 ft 447 kts 63°
2026-04-26 12:44 42.09796 -3.91004 36171 ft 447 kts 64°
2026-04-26 12:44 42.12474 -3.83433 36171 ft 448 kts 64°
2026-04-26 12:45 42.15126 -3.75833 36178 ft 448 kts 64°
2026-04-26 12:45 42.17771 -3.68226 36182 ft 448 kts 64°
2026-04-26 12:46 42.20422 -3.60635 36197 ft 447 kts 64°
2026-04-26 12:46 42.23067 -3.53045 36198 ft 447 kts 64°
2026-04-26 12:47 42.25703 -3.45436 36201 ft 447 kts 64°
2026-04-26 12:47 42.28321 -3.37827 36203 ft 446 kts 64°
2026-04-26 12:48 42.30924 -3.30277 36197 ft 446 kts 64°
2026-04-26 12:48 42.33535 -3.22686 36192 ft 445 kts 64°
2026-04-26 12:49 42.36141 -3.15082 36181 ft 445 kts 64°
2026-04-26 12:49 42.38728 -3.07486 36175 ft 445 kts 65°
2026-04-26 12:50 42.41316 -2.99882 36173 ft 445 kts 65°
2026-04-26 12:50 42.43890 -2.92267 36172 ft 444 kts 67°
2026-04-26 12:51 42.45356 -2.84166 36164 ft 445 kts 84°
2026-04-26 12:51 42.45501 -2.75823 36163 ft 446 kts 88°
2026-04-26 12:52 42.45625 -2.67416 36158 ft 446 kts 88°
2026-04-26 12:52 42.45728 -2.60438 36161 ft 446 kts 88°
2026-04-26 12:53 42.45839 -2.52043 36156 ft 445 kts 88°
2026-04-26 12:53 42.45938 -2.43654 36136 ft 445 kts 88°
2026-04-26 12:54 42.46029 -2.35267 36137 ft 445 kts 87°
2026-04-26 12:54 42.47001 -2.27024 36133 ft 444 kts 76°
2026-04-26 12:55 42.48377 -2.18862 36131 ft 444 kts 76°
2026-04-26 12:55 42.49724 -2.10750 36129 ft 444 kts 77°
2026-04-26 12:56 42.51070 -2.02579 36133 ft 444 kts 77°
2026-04-26 12:56 42.52409 -1.94401 36138 ft 445 kts 77°
2026-04-26 12:57 42.53745 -1.86206 36144 ft 445 kts 77°
2026-04-26 12:57 42.55079 -1.78015 36149 ft 445 kts 77°
2026-04-26 12:58 42.57069 -1.65705 36162 ft 445 kts 77°
2026-04-26 12:58 42.58394 -1.57494 36162 ft 445 kts 77°
2026-04-26 12:59 42.59706 -1.49341 36159 ft 445 kts 77°
2026-04-26 12:59 42.61016 -1.41123 36155 ft 445 kts 76°
2026-04-26 13:00 42.62318 -1.32904 36156 ft 445 kts 76°
2026-04-26 13:00 42.63613 -1.24683 36155 ft 444 kts 76°
2026-04-26 13:01 42.64890 -1.16528 36151 ft 444 kts 77°
2026-04-26 13:01 42.66175 -1.08306 36153 ft 445 kts 77°
2026-04-26 13:02 42.67454 -1.00078 36151 ft 445 kts 77°
2026-04-26 13:02 42.68725 -0.91834 36150 ft 445 kts 77°
2026-04-26 13:03 42.69991 -0.83596 36162 ft 445 kts 76°
2026-04-26 13:03 42.71259 -0.75339 36168 ft 445 kts 77°
2026-04-26 13:04 42.72513 -0.67128 36161 ft 446 kts 77°
2026-04-26 13:04 42.73768 -0.58857 36175 ft 446 kts 76°
2026-04-26 13:05 42.75015 -0.50605 36174 ft 447 kts 77°
2026-04-26 13:05 42.76256 -0.42315 36186 ft 447 kts 77°
2026-04-26 13:06 42.77492 -0.34029 36189 ft 447 kts 77°
2026-04-26 13:06 42.78724 -0.25725 36204 ft 447 kts 76°
2026-04-26 13:07 42.80911 -0.17878 36205 ft 443 kts 58°
2026-04-26 13:07 42.84591 -0.11193 36203 ft 441 kts 49°
2026-04-26 13:08 42.88463 -0.04765 36201 ft 441 kts 49°
2026-04-26 13:08 42.92349 0.01719 36202 ft 442 kts 50°
2026-04-26 13:09 42.96241 0.08221 36195 ft 442 kts 50°
2026-04-26 13:09 43.00132 0.14740 36195 ft 443 kts 50°
2026-04-26 13:10 43.04015 0.21270 36202 ft 443 kts 50°
2026-04-26 13:10 43.07897 0.27810 36203 ft 442 kts 50°
2026-04-26 13:11 43.11772 0.34339 36197 ft 442 kts 50°
2026-04-26 13:11 43.15646 0.40881 36198 ft 442 kts 50°
2026-04-26 13:12 43.19513 0.47445 36182 ft 443 kts 50°
2026-04-26 13:12 43.23387 0.54002 36188 ft 443 kts 50°
2026-04-26 13:13 43.27265 0.60571 36184 ft 443 kts 50°
2026-04-26 13:13 43.31104 0.67119 36179 ft 443 kts 50°
2026-04-26 13:14 43.34962 0.73738 36177 ft 443 kts 50°
2026-04-26 13:14 43.38823 0.80344 36176 ft 444 kts 50°
2026-04-26 13:15 43.42684 0.86976 36176 ft 444 kts 50°
2026-04-26 13:15 43.46539 0.93615 36184 ft 444 kts 50°
2026-04-26 13:16 43.50388 1.00259 36186 ft 444 kts 50°
2026-04-26 13:16 43.54242 1.06916 36183 ft 443 kts 50°
2026-04-26 13:17 43.60006 1.16907 36174 ft 444 kts 50°
2026-04-26 13:18 43.65749 1.26884 36173 ft 444 kts 50°
2026-04-26 13:19 43.71427 1.37023 36181 ft 445 kts 52°
2026-04-26 13:19 43.75071 1.43947 36179 ft 444 kts 52°
2026-04-26 13:20 43.78682 1.50834 36176 ft 444 kts 52°
2026-04-26 13:20 43.82342 1.57726 36176 ft 445 kts 51°
2026-04-26 13:21 43.86015 1.64629 36176 ft 445 kts 51°
2026-04-26 13:21 43.89684 1.71554 36181 ft 446 kts 52°
2026-04-26 13:22 43.93352 1.78511 36187 ft 446 kts 52°
2026-04-26 13:22 43.96974 1.85438 36189 ft 446 kts 52°
2026-04-26 13:23 44.00517 1.92526 36205 ft 447 kts 53°
2026-04-26 13:23 44.04020 1.99659 36201 ft 447 kts 53°
2026-04-26 13:24 44.07547 2.06801 36197 ft 447 kts 53°
2026-04-26 13:24 44.11086 2.13930 36198 ft 447 kts 53°
2026-04-26 13:25 44.14619 2.21065 36199 ft 447 kts 53°
2026-04-26 13:25 44.18137 2.28205 36198 ft 447 kts 53°
2026-04-26 13:26 44.21661 2.35360 36210 ft 447 kts 53°
2026-04-26 13:26 44.25155 2.42467 36204 ft 447 kts 53°
2026-04-26 13:27 44.28660 2.49625 36199 ft 447 kts 53°
2026-04-26 13:27 44.32155 2.56809 36202 ft 447 kts 53°
2026-04-26 13:28 44.35649 2.63987 36198 ft 447 kts 53°
2026-04-26 13:28 44.39152 2.71184 36204 ft 447 kts 53°
2026-04-26 13:29 44.42651 2.78388 36195 ft 448 kts 53°
2026-04-26 13:29 44.46142 2.85617 36184 ft 448 kts 54°
2026-04-26 13:30 44.49604 2.92803 36177 ft 448 kts 54°
2026-04-26 13:30 44.53084 3.00054 36180 ft 448 kts 54°
2026-04-26 13:31 44.56575 3.07332 36181 ft 449 kts 54°
2026-04-26 13:31 44.60058 3.14599 36180 ft 449 kts 54°
2026-04-26 13:32 44.63367 3.22045 36171 ft 450 kts 58°
2026-04-26 13:32 44.66387 3.29754 36175 ft 451 kts 60°
2026-04-26 13:33 44.69345 3.37449 36167 ft 450 kts 59°
2026-04-26 13:33 44.71897 3.43907 36167 ft 450 kts 59°
2026-04-26 13:34 44.74459 3.50287 36168 ft 450 kts 58°
2026-04-26 13:34 44.77532 3.57971 36169 ft 451 kts 59°
2026-04-26 13:35 44.80587 3.65681 36171 ft 451 kts 59°
2026-04-26 13:35 44.83635 3.73393 36170 ft 451 kts 59°
2026-04-26 13:36 44.86678 3.81118 36177 ft 451 kts 59°
2026-04-26 13:36 44.89700 3.88819 36148 ft 452 kts 59°
2026-04-26 13:37 44.92749 3.96595 36153 ft 453 kts 59°
2026-04-26 13:37 44.95796 4.04386 36161 ft 453 kts 59°
2026-04-26 13:38 44.98832 4.12178 36166 ft 452 kts 59°
2026-04-26 13:38 45.01865 4.19972 36169 ft 452 kts 59°
2026-04-26 13:39 45.04380 4.26465 36147 ft 454 kts 60°
2026-04-26 13:39 45.07412 4.34304 36134 ft 455 kts 60°
2026-04-26 13:40 45.10455 4.42190 36140 ft 457 kts 60°
2026-04-26 13:40 45.13502 4.50103 36144 ft 457 kts 60°
2026-04-26 13:41 45.16512 4.57965 36156 ft 457 kts 60°
2026-04-26 13:41 45.19535 4.65889 36137 ft 458 kts 60°
2026-04-26 13:42 45.22573 4.73860 36122 ft 460 kts 60°
2026-04-26 13:42 45.25617 4.81850 36125 ft 461 kts 60°
2026-04-26 13:43 45.28664 4.89867 36144 ft 462 kts 60°
2026-04-26 13:43 45.31695 4.97897 36165 ft 461 kts 60°
2026-04-26 13:44 45.34723 5.05948 36167 ft 460 kts 61°
2026-04-26 13:44 45.37744 5.13991 36156 ft 461 kts 61°
2026-04-26 13:45 45.40769 5.22055 36150 ft 462 kts 61°
2026-04-26 13:45 45.43791 5.30137 36159 ft 463 kts 61°
2026-04-26 13:46 45.46804 5.38238 36173 ft 462 kts 61°
2026-04-26 13:46 45.50411 5.45679 36177 ft 459 kts 45°
2026-04-26 13:47 45.55106 5.51811 36152 ft 458 kts 40°
2026-04-26 13:47 45.59871 5.57880 36125 ft 459 kts 40°
2026-04-26 13:48 45.61448 5.59896 36129 ft 459 kts 40°
2026-04-26 13:48 45.65428 5.65015 36136 ft 460 kts 40°
2026-04-26 13:49 45.70194 5.71120 36144 ft 460 kts 40°
2026-04-26 13:49 45.74961 5.77236 36143 ft 460 kts 40°
2026-04-26 13:50 45.79726 5.83349 36144 ft 460 kts 40°
2026-04-26 13:50 45.84488 5.89469 36160 ft 459 kts 40°
2026-04-26 13:51 45.88867 5.95135 36155 ft 459 kts 40°
2026-04-26 13:51 45.93551 6.01209 36132 ft 460 kts 40°
2026-04-26 13:52 45.98298 6.07366 36138 ft 460 kts 40°
2026-04-26 13:52 46.03049 6.13538 36153 ft 460 kts 40°
2026-04-26 13:53 46.07776 6.19727 36151 ft 459 kts 43°
2026-04-26 13:53 46.11736 6.26966 36182 ft 461 kts 53°
2026-04-26 13:54 46.15424 6.34529 36185 ft 461 kts 53°
2026-04-26 13:54 46.19114 6.42088 36177 ft 461 kts 53°
2026-04-26 13:55 46.24028 6.52203 36165 ft 462 kts 53°
2026-04-26 13:56 46.30157 6.64869 36157 ft 463 kts 53°
2026-04-26 13:56 46.33835 6.72508 36159 ft 463 kts 53°
2026-04-26 13:57 46.37511 6.80169 36173 ft 463 kts 53°
2026-04-26 13:57 46.41183 6.87828 36175 ft 464 kts 53°
2026-04-26 13:58 46.44860 6.95517 36169 ft 465 kts 53°
2026-04-26 13:58 46.48517 7.03186 36164 ft 465 kts 53°
2026-04-26 13:59 46.52213 7.10957 36169 ft 465 kts 53°
2026-04-26 13:59 46.55817 7.18557 36155 ft 466 kts 53°
2026-04-26 14:00 46.62406 7.28785 34634 ft 465 kts 39°
2026-04-26 14:00 46.64858 7.31870 33718 ft 467 kts 38°
2026-04-26 14:00 46.66526 7.33955 33008 ft 470 kts 38°
2026-04-26 14:01 46.69822 7.38073 31700 ft 473 kts 39°
2026-04-26 14:01 46.72326 7.41215 30653 ft 476 kts 39°
2026-04-26 14:01 46.74844 7.44395 29395 ft 481 kts 39°
2026-04-26 14:01 46.77355 7.47597 28246 ft 482 kts 41°
2026-04-26 14:02 46.79586 7.51064 27389 ft 479 kts 50°
2026-04-26 14:02 46.81631 7.54854 26684 ft 471 kts 50°
2026-04-26 14:02 46.83657 7.58582 25917 ft 466 kts 50°
2026-04-26 14:02 46.85669 7.62252 25180 ft 461 kts 50°
2026-04-26 14:03 46.87668 7.65892 24453 ft 457 kts 49°
2026-04-26 14:03 46.89651 7.69514 23729 ft 453 kts 50°
2026-04-26 14:03 46.91606 7.73099 22952 ft 449 kts 50°
2026-04-26 14:03 46.93535 7.76655 22296 ft 444 kts 50°
2026-04-26 14:04 46.95443 7.80186 21638 ft 439 kts 49°
2026-04-26 14:04 46.97322 7.83671 21018 ft 434 kts 49°
2026-04-26 14:04 46.99376 7.86841 20499 ft 424 kts 38°
2026-04-26 14:04 47.01863 7.89165 19437 ft 426 kts 21°
2026-04-26 14:05 47.04657 7.90356 18642 ft 423 kts
2026-04-26 14:05 47.07580 7.91204 17833 ft 422 kts
2026-04-26 14:05 47.10407 7.92030 17123 ft 418 kts 10°
2026-04-26 14:05 47.13258 7.92870 16457 ft 415 kts
2026-04-26 14:06 47.16074 7.93711 15816 ft 411 kts
2026-04-26 14:06 47.18867 7.94549 15194 ft 408 kts 10°
2026-04-26 14:06 47.21657 7.95388 14323 ft 411 kts
2026-04-26 14:06 47.24464 7.96229 13560 ft 410 kts 11°
2026-04-26 14:07 47.27250 7.97064 12827 ft 407 kts 10°
2026-04-26 14:07 47.30009 7.97891 12102 ft 403 kts
2026-04-26 14:07 47.32748 7.98716 11399 ft 400 kts 10°
2026-04-26 14:07 47.35458 7.99532 10882 ft 391 kts 10°
2026-04-26 14:08 47.38060 8.00319 10766 ft 373 kts 10°
2026-04-26 14:08 47.40539 8.01066 10643 ft 355 kts 11°
2026-04-26 14:08 47.42909 8.01781 10522 ft 340 kts 10°
2026-04-26 14:08 47.45175 8.02467 10413 ft 326 kts 11°
2026-04-26 14:09 47.47354 8.03125 10287 ft 313 kts 11°
2026-04-26 14:09 47.49376 8.03985 10164 ft 301 kts 26°
2026-04-26 14:09 47.50994 8.05865 9928 ft 295 kts 49°
2026-04-26 14:09 47.52254 8.08240 9578 ft 292 kts 53°
2026-04-26 14:10 47.53457 8.10652 9216 ft 289 kts 53°
2026-04-26 14:10 47.54640 8.13042 8862 ft 286 kts 53°
2026-04-26 14:10 47.55812 8.15412 8509 ft 283 kts 53°
2026-04-26 14:10 47.56924 8.17805 8146 ft 280 kts 63°
2026-04-26 14:11 47.58100 8.23057 7748 ft 253 kts 73°
2026-04-26 14:11 47.58568 8.25496 7591 ft 234 kts 73°
2026-04-26 14:11 47.58990 8.27731 7381 ft 221 kts 73°
2026-04-26 14:12 47.59386 8.29833 7268 ft 201 kts 73°
2026-04-26 14:12 47.59737 8.31711 7084 ft 181 kts 74°
2026-04-26 14:12 47.60067 8.33500 6588 ft 179 kts 73°
2026-04-26 14:12 47.60226 8.35311 6025 ft 179 kts 91°
2026-04-26 14:13 47.59154 8.38611 4757 ft 184 kts 135°
2026-04-26 14:13 47.58229 8.39875 4242 ft 176 kts 134°
2026-04-26 14:13 47.57356 8.41070 3910 ft 165 kts 135°
2026-04-26 14:14 47.56551 8.42175 3694 ft 153 kts 134°
2026-04-26 14:14 47.55781 8.43233 3477 ft 149 kts 133°
2026-04-26 14:14 47.55042 8.44247 3261 ft 142 kts 133°
2026-04-26 14:14 47.54320 8.45230 3016 ft 139 kts 131°
2026-04-26 14:15 47.53617 8.46204 2862 ft 138 kts 131°
2026-04-26 14:15 47.52916 8.47177 2687 ft 138 kts 133°
2026-04-26 14:15 47.52213 8.48139 2532 ft 138 kts 133°
2026-04-26 14:15 47.51512 8.49101 2352 ft 136 kts 132°
2026-04-26 14:16 47.50819 8.50055 2144 ft 136 kts 133°
2026-04-26 14:16 47.50116 8.51011 1959 ft 137 kts 131°
2026-04-26 14:16 47.49409 8.51977 1775 ft 140 kts 132°
2026-04-26 14:16 47.48682 8.52966 1576 ft 142 kts 134°
2026-04-26 14:17 47.47963 8.53941 1409 ft 138 kts 133°
2026-04-26 14:17 47.47349 8.54780 1399 ft 96 kts 138°
2026-04-26 14:17 47.46951 8.55332 1399 ft 68 kts 136°
2026-04-26 14:17 47.46714 8.55611 1397 ft 35 kts 151°
2026-04-26 14:18 47.46532 8.55694 1403 ft 2 kts 168°
2026-04-26 14:18 47.46525 8.55699 1406 ft 5 kts 155°
2026-04-26 14:18 47.46498 8.55709 1403 ft 0 kts 165°
2026-04-26 14:18 47.46495 8.55711 1405 ft 1 kts 165°
2026-04-26 14:19 47.46488 8.55713 1402 ft 1 kts 165°
2026-04-26 14:19 47.46477 8.55717 1400 ft 2 kts 166°
2026-04-26 14:19 47.46459 8.55724 1400 ft 3 kts 166°
2026-04-26 14:19 47.46433 8.55733 1396 ft 4 kts 167°
2026-04-26 14:20 47.46426 8.55735 1396 ft 0 kts 167°
2026-04-26 14:20 47.46425 8.55736 1396 ft 1 kts 167°
2026-04-26 14:21 47.46417 8.55738 1401 ft 2 kts 167°
2026-04-26 14:21 47.46405 8.55743 1402 ft 2 kts 161°
2026-04-26 14:21 47.46377 8.55767 1402 ft 5 kts 144°
2026-04-26 14:21 47.46358 8.55792 1400 ft 2 kts 138°
2026-04-26 14:22 47.46338 8.55819 1397 ft 10 kts 138°
2026-04-26 14:22 47.46282 8.55889 1404 ft 8 kts 147°
2026-04-26 14:22 47.46239 8.55874 1400 ft 6 kts 227°
2026-04-26 14:22 47.46231 8.55821 1398 ft 6 kts 263°
2026-04-26 14:23 47.46187 8.55783 1401 ft 7 kts 186°
2026-04-26 14:23 47.46161 8.55780 1400 ft 2 kts 185°
2026-04-26 14:23 47.46160 8.55780 1400 ft 0 kts 185°